Regional Weather Roundup
Issued by NWS

Home | Current Version | Previous Version | Text Only | Print | Product List | Glossary On
Versions: 1 2 3 4 5 6 7 8 9 10 11 12 13 14 15 16 17 18 19 20 21 22 23 24 25 26 27 28 29 30 31 32 33 34 35 36 37 38 39 40 41 42 43 44 45 46 47 48 49 50
000
ASPQ40 PGUM 070510
RWRPQ
WEATHER ROUNDUP FOR THE MARIANAS AND MICRONESIA
NATIONAL WEATHER SERVICE TIYAN GU
300 PM CHST SAT MAR 07 2015

GUZ001>004-070600-
MARIANA ISLANDS-

CITY           SKY/WX    TMP DP  RH WIND       PRES   REMARKS
GUAM AIRPORT   MOSUNNY   88  66  48 NE17G26   29.84F HX  90
ANDERSEN AFB   MOSUNNY   82  70  65 NE18      29.85F
ROTA AIRPORT   NOT AVBL
TINIAN AP      NOT AVBL
SAIPAN AP      MOSUNNY   84  68  58 NE18      29.84F

$$

PMZ161-070600-
REPUBLIC OF PALAU-

CITY           SKY/WX    TMP DP  RH WIND       PRES   REMARKS
KOROR AP       PTSUNNY   84  75  74 NE12G22   29.84S HX  92
KOROR WSO      NOT AVBL

$$

PMZ171>174-070600-
FEDERATED STATES OF MICRONESIA-

CITY           SKY/WX    TMP DP  RH WIND       PRES   REMARKS
YAP AIRPORT    MOSUNNY   81  75  83 N9        29.82F
CHUUK AP       NOT AVBL
POHNPEI AP     CLOUDY    88  77  70 NE12      29.63F HX 100
POHNPEI WSO    NOT AVBL
KOSRAE AP      NOT AVBL

$$

PMZ181-070600-
REPUBLIC OF THE MARSHALL ISLANDS-

CITY           SKY/WX    TMP DP  RH WIND       PRES   REMARKS
KWAJALEIN AP   PTSUNNY   82  75  78 NE21      29.62R
MAJURO AP      NOT AVBL
MAJURO WSO     PTSUNNY   84  79  84 NE10      29.58  HX  96

$$




USA.gov is the U.S. government's official web portal to all federal, state and local government web resources and services.